Home > Weather > Port of Spain > Past weeks

Flag for Trinidad and Tobago Weather for the Past 2 Weeks in Port of Spain, Trinidad and Tobago

Now
77 °F

Passing clouds.


Feels Like: 78 °F
Forecast: 80 / 90 °F
Wind: No wind

Location: Piarco International Airport - Trinidad

Current Time: May 5, 2016 at 3:12:12 AM

Latest Report: May 5, 2016 at 2:00 AM


Visibility: N/A

Pressure: 29.89 "Hg

Humidity: 89%

Dew Point: 73 °F

Location of Port of SpainLocation

Historic Weather in Port of Spain — Graph

°F

Port of Spain Temperature Yesterday

Maximum temperature yesterday: 90 °F (at 12:00 PM)
Minimum temperature yesterday: 75 °F (at 3:00 AM)
Average temperature yesterday: 81 °F

High & Low Weather Summary for the Past Weeks

 TemperatureHumidityPressure
High95 °F (Apr 20, 12:00 PM)100% (Apr 27, 4:00 AM)30.01 "Hg (Apr 27, 4:00 AM)
Low72 °F (May 1, 10:00 AM)47% (Apr 21, 12:00 PM)29.77 "Hg (Apr 25, 3:00 PM)
Average82 °F81%29.89 "Hg
* Reported Apr 20 1:00 AM — May 5 1:00 AM, Port of Spain, Weather by CustomWeather, © 2016

Note: Actual official high and low records may vary slightly from our data, if they occured in-between our weather recording intervals... More about our weather records

Advertising

Port of Spain Weather History for the Previous 24 Hours

Scroll right to see more
 ConditionsComfort  
Time TempWeatherWind HumidityBarometerVisibility
1:00 AM
Thu, May 5
77 °FPassing clouds.No wind89%29.92 "HgN/A
12:00 AM77 °FPassing clouds.No wind89%29.95 "HgN/A
11:00 PM
Wed, May 4
77 °FPassing clouds.No wind89%29.95 "HgN/A
10:00 PM77 °FPassing clouds.No wind89%29.95 "HgN/A
9:00 PM79 °FPassing clouds.3 mph84%29.92 "HgN/A
8:00 PM79 °FPassing clouds.6 mph84%29.92 "HgN/A
7:00 PM81 °FPassing clouds.8 mph79%29.89 "HgN/A
6:00 PM82 °FPassing clouds.9 mph74%29.86 "HgN/A
5:00 PM84 °FScattered clouds.13 mph74%29.86 "HgN/A
4:00 PM86 °FPassing clouds.10 mph62%29.86 "HgN/A
3:00 PM88 °FPassing clouds.14 mph59%29.89 "HgN/A
2:00 PM88 °FScattered showers. Passing clouds.15 mph62%29.89 "HgN/A
1:00 PM84 °FSprinkles. Broken clouds.9 mph74%29.95 "HgN/A
12:00 PM90 °FPassing clouds.12 mph63%29.95 "HgN/A
11:00 AM88 °FScattered showers. Scattered clouds.14 mph66%29.98 "HgN/A
10:00 AM86 °FScattered showers. Scattered clouds.17 mph66%29.98 "HgN/A
9:00 AM88 °FScattered clouds.12 mph62%29.98 "HgN/A
8:00 AM84 °FPassing clouds.No wind74%29.98 "HgN/A
7:00 AM77 °FScattered clouds.No wind94%29.95 "HgN/A
6:00 AM77 °FPartly sunny.No wind94%29.92 "HgN/A
5:00 AM77 °FPassing clouds.No wind94%29.92 "HgN/A
4:00 AM77 °FPassing clouds.No wind94%29.89 "HgN/A
3:00 AM75 °FPassing clouds.No wind94%29.89 "HgN/A
Weather by CustomWeather, © 2016

See weather overviewHow to use our weather pages